• In Lithuania
  • List of Countries
  • For 7 days
  • Water Temperature
  • Satellite Maps
  • Weather Map
  • Weather Widgets
  • user-avatar
    Login

    Hourly Weather Juticalpa

    Today, 18 October, Wednesday

    Time Temperature Precipitation Wind Pressure Humidity
    00:00 +22°C° 0 mm 0 mps 727 mmHg 98%
    01:00 +22°C° 0 mm 0 mps 727 mmHg 98%
    02:00 +22°C° 0 mm 0 mps 726 mmHg 98%
    03:00 +22°C° 0 mm 0 mps 726 mmHg 98%
    04:00 +22°C° 0 mm 0 mps 726 mmHg 98%
    05:00 +22°C° 0 mm 0 mps 727 mmHg 98%
    06:00 +22°C° 0 mm 0 mps 727 mmHg 98%
    07:00 +26°C° 0 mm 1 mps 727 mmHg 88%
    08:00 +28°C° 0 mm 1 mps 728 mmHg 78%
    09:00 +30°C° 0 mm 1 mps 728 mmHg 67%
    10:00 +31°C° 0.2 mm 1 mps 728 mmHg 64%
    11:00 +32°C° 0.2 mm 2 mps 727 mmHg 61%
    12:00 +34°C° 0.2 mm 2 mps 727 mmHg 58%
    13:00 +32°C° 1.1 mm 2 mps 726 mmHg 67%
    14:00 +31°C° 1.1 mm 2 mps 726 mmHg 76%
    15:00 +30°C° 1.1 mm 2 mps 725 mmHg 85%
    16:00 +28°C° 0.6 mm 1 mps 726 mmHg 89%
    17:00 +27°C° 0.6 mm 1 mps 726 mmHg 92%
    18:00 +24°C° 0.6 mm 0 mps 726 mmHg 96%
    19:00 +24°C° 0 mm 0 mps 727 mmHg 96%
    20:00 +23°C° 0 mm 0 mps 727 mmHg 97%
    21:00 +23°C° 0 mm 0 mps 728 mmHg 97%
    22:00 +23°C° 0 mm 0 mps 728 mmHg 97%
    23:00 +23°C° 0 mm 0 mps 727 mmHg 97%

    Tomorrow, 19 October, Thursday

    Time Temperature Precipitation Wind Pressure Humidity
    00:00 +23°C° 0 mm 0 mps 727 mmHg 98%
    01:00 +22°C° 0 mm 0 mps 727 mmHg 98%
    02:00 +22°C° 0 mm 0 mps 726 mmHg 98%
    03:00 +22°C° 0 mm 0 mps 726 mmHg 98%
    04:00 +22°C° 0 mm 0 mps 726 mmHg 98%
    05:00 +22°C° 0 mm 0 mps 726 mmHg 98%
    06:00 +22°C° 0 mm 0 mps 726 mmHg 98%
    07:00 +24°C° 0 mm 0 mps 727 mmHg 89%
    08:00 +28°C° 0 mm 1 mps 728 mmHg 81%
    09:00 +30°C° 0 mm 1 mps 728 mmHg 72%
    10:00 +31°C° 0.3 mm 1 mps 728 mmHg 69%
    11:00 +32°C° 0.3 mm 1 mps 727 mmHg 65%
    12:00 +34°C° 0.3 mm 2 mps 727 mmHg 62%
    13:00 +31°C° 1.7 mm 2 mps 726 mmHg 71%
    14:00 +30°C° 1.7 mm 2 mps 725 mmHg 80%
    15:00 +29°C° 1.7 mm 2 mps 725 mmHg 88%
    16:00 +28°C° 1.3 mm 1 mps 725 mmHg 91%
    17:00 +27°C° 1.3 mm 1 mps 725 mmHg 94%
    18:00 +24°C° 1.3 mm 0 mps 726 mmHg 96%
    19:00 +23°C° 0.6 mm 0 mps 726 mmHg 97%
    20:00 +23°C° 0.6 mm 0 mps 727 mmHg 97%
    21:00 +23°C° 0.6 mm 0 mps 728 mmHg 97%
    22:00 +23°C° 0.1 mm 0 mps 727 mmHg 97%
    23:00 +22°C° 0.1 mm 0 mps 727 mmHg 98%

    Day after tomorrow, 20 October, Friday

    Time Temperature Precipitation Wind Pressure Humidity
    00:00 +22°C° 0.1 mm 0 mps 727 mmHg 98%
    01:00 +22°C° 0 mm 0 mps 726 mmHg 98%
    02:00 +22°C° 0 mm 0 mps 726 mmHg 98%
    03:00 +22°C° 0 mm 0 mps 726 mmHg 98%
    04:00 +21°C° 0 mm 0 mps 726 mmHg 98%
    05:00 +21°C° 0 mm 0 mps 726 mmHg 98%
    06:00 +21°C° 0 mm 0 mps 726 mmHg 98%
    07:00 +24°C° 0 mm 0 mps 727 mmHg 88%
    08:00 +28°C° 0 mm 1 mps 727 mmHg 79%
    09:00 +30°C° 0 mm 1 mps 728 mmHg 70%
    10:00 +31°C° 0.2 mm 1 mps 727 mmHg 67%
    11:00 +32°C° 0.2 mm 1 mps 727 mmHg 64%
    12:00 +34°C° 0.2 mm 2 mps 726 mmHg 61%
    13:00 +31°C° 1.4 mm 2 mps 725 mmHg 70%
    14:00 +30°C° 1.4 mm 1 mps 725 mmHg 79%
    15:00 +29°C° 1.4 mm 1 mps 724 mmHg 88%
    16:00 +28°C° 1.9 mm 1 mps 724 mmHg 91%
    17:00 +27°C° 1.9 mm 1 mps 725 mmHg 93%
    18:00 +26°C° 1.9 mm 1 mps 725 mmHg 96%
    19:00 +23°C° 0.4 mm 0 mps 726 mmHg 96%
    20:00 +23°C° 0.4 mm 0 mps 726 mmHg 97%
    21:00 +23°C° 0.4 mm 0 mps 727 mmHg 97%
    22:00 +23°C° 0.1 mm 0 mps 727 mmHg 97%
    23:00 +23°C° 0.1 mm 0 mps 726 mmHg 98%

    21 October, Saturday

    Time Temperature Precipitation Wind Pressure Humidity
    00:00 +22°C° 0.1 mm 0 mps 726 mmHg 98%
    01:00 +22°C° 0.2 mm 0 mps 726 mmHg 98%
    02:00 +22°C° 0.2 mm 0 mps 725 mmHg 98%
    03:00 +22°C° 0.2 mm 0 mps 725 mmHg 98%
    04:00 +22°C° 0.3 mm 0 mps 725 mmHg 98%
    05:00 +22°C° 0.3 mm 0 mps 726 mmHg 98%
    06:00 +22°C° 0.3 mm 0 mps 726 mmHg 98%
    07:00 +23°C° 0.3 mm 0 mps 726 mmHg 93%
    08:00 +25°C° 0.3 mm 0 mps 727 mmHg 88%
    09:00 +28°C° 0.3 mm 1 mps 728 mmHg 83%
    10:00 +28°C° 0.7 mm 1 mps 727 mmHg 84%
    11:00 +29°C° 0.7 mm 1 mps 726 mmHg 85%
    12:00 +29°C° 0.7 mm 1 mps 726 mmHg 86%
    13:00 +28°C° 1.1 mm 1 mps 725 mmHg 88%
    14:00 +28°C° 1.1 mm 1 mps 725 mmHg 89%
    15:00 +28°C° 1.1 mm 1 mps 725 mmHg 91%
    16:00 +27°C° 0.7 mm 1 mps 725 mmHg 93%
    17:00 +26°C° 0.7 mm 1 mps 725 mmHg 95%
    18:00 +25°C° 0.7 mm 1 mps 726 mmHg 97%
    19:00 +23°C° 0.2 mm 0 mps 726 mmHg 97%
    20:00 +23°C° 0.2 mm 0 mps 727 mmHg 98%
    21:00 +23°C° 0.2 mm 0 mps 727 mmHg 98%
    22:00 +23°C° 0.2 mm 0 mps 727 mmHg 98%
    23:00 +22°C° 0.2 mm 0 mps 727 mmHg 98%

    22 October, Sunday

    Time Temperature Precipitation Wind Pressure Humidity
    00:00 +22°C° 0.2 mm 0 mps 726 mmHg 98%
    01:00 +22°C° 0 mm 0 mps 726 mmHg 98%
    02:00 +22°C° 0 mm 0 mps 726 mmHg 98%
    03:00 +22°C° 0 mm 0 mps 725 mmHg 98%
    04:00 +22°C° 0 mm 0 mps 726 mmHg 98%
    05:00 +22°C° 0 mm 0 mps 726 mmHg 98%
    06:00 +22°C° 0 mm 0 mps 727 mmHg 98%
    07:00 +23°C° 0.3 mm 0 mps 727 mmHg 94%
    08:00 +25°C° 0.3 mm 0 mps 728 mmHg 90%
    09:00 +26°C° 0.3 mm 0 mps 728 mmHg 86%
    10:00 +28°C° 1.1 mm 1 mps 727 mmHg 88%
    11:00 +28°C° 1.1 mm 1 mps 727 mmHg 90%
    12:00 +27°C° 1.1 mm 1 mps 726 mmHg 92%
    13:00 +27°C° 0.9 mm 1 mps 726 mmHg 93%
    14:00 +27°C° 0.9 mm 1 mps 726 mmHg 94%
    15:00 +26°C° 0.9 mm 1 mps 725 mmHg 95%
    16:00 +26°C° 0.3 mm 1 mps 726 mmHg 96%
    17:00 +25°C° 0.3 mm 1 mps 726 mmHg 97%
    18:00 +23°C° 0.3 mm 0 mps 726 mmHg 98%
    19:00 +23°C° 0.4 mm 0 mps 727 mmHg 98%
    20:00 +22°C° 0.4 mm 0 mps 727 mmHg 98%
    21:00 +22°C° 0.4 mm 0 mps 728 mmHg 98%
    22:00 +22°C° 0.9 mm 0 mps 728 mmHg 98%
    23:00 +22°C° 0.9 mm 0 mps 727 mmHg 98%

    23 October, Monday

    Time Temperature Precipitation Wind Pressure Humidity
    00:00 +22°C° 0.9 mm 0 mps 727 mmHg 98%
    01:00 +22°C° 0.7 mm 0 mps 727 mmHg 98%
    02:00 +22°C° 0.7 mm 0 mps 726 mmHg 98%
    03:00 +22°C° 0.7 mm 0 mps 726 mmHg 98%
    04:00 +22°C° 0.2 mm 0 mps 726 mmHg 98%
    05:00 +22°C° 0.2 mm 0 mps 727 mmHg 98%
    06:00 +22°C° 0.2 mm 0 mps 727 mmHg 98%
    07:00 +23°C° 0.1 mm 0 mps 727 mmHg 93%
    08:00 +24°C° 0.1 mm 0 mps 728 mmHg 88%
    09:00 +28°C° 0.1 mm 1 mps 728 mmHg 83%
    10:00 +28°C° 0.2 mm 1 mps 728 mmHg 80%
    11:00 +29°C° 0.2 mm 1 mps 727 mmHg 76%
    12:00 +30°C° 0.2 mm 1 mps 726 mmHg 73%
    13:00 +30°C° 0.2 mm 1 mps 726 mmHg 73%
    14:00 +30°C° 0.2 mm 1 mps 725 mmHg 73%
    15:00 +30°C° 0.2 mm 1 mps 725 mmHg 74%
    16:00 +28°C° 0.5 mm 1 mps 725 mmHg 80%
    17:00 +27°C° 0.5 mm 1 mps 725 mmHg 87%
    18:00 +26°C° 0.5 mm 1 mps 726 mmHg 93%
    19:00 +23°C° 0.5 mm 0 mps 726 mmHg 94%
    20:00 +23°C° 0.5 mm 0 mps 727 mmHg 95%
    21:00 +23°C° 0.5 mm 0 mps 727 mmHg 96%
    22:00 +23°C° 0.5 mm 0 mps 727 mmHg 97%
    23:00 +22°C° 0.5 mm 0 mps 726 mmHg 97%
    Show more